Regional Weather Roundup
Issued by NWS

Home | Current Version | Previous Version | Text Only | Print | Product List | Glossary On
Versions: 1 2 3 4 5 6 7 8 9 10 11 12 13 14 15 16 17 18 19 20 21 22 23 24 25 26 27
000
ASUS43 KMPX 101010
RWRMN
WEATHER ROUNDUP FOR MINNESOTA
NATIONAL WEATHER SERVICE TWIN CITIES/CHANHASSEN MN
500 AM CDT MON MAY 10 2021


NOTE: "FAIR" INDICATES FEW OR NO CLOUDS BELOW 12,000 FEET WITH NO
SIGNIFICANT WEATHER AND/OR OBSTRUCTIONS TO VISIBILITY. N/A MEANS
CURRENT SKY AND/OR WEATHER CONDITIONS ARE NOT AVAILABLE.

MNZ060>063-068>070-101100-
   Twin Cities Metro

CITY           SKY/WX    TMP DP  RH WIND       PRES   REMARKS
TWIN CITIES    MOCLDY    42  26  53 NE9       30.15R
ST PAUL        MOCLDY    42  28  57 NE8       30.17R
CRYSTAL        CLOUDY    41  26  55 NE5       30.16R
BLAINE         CLOUDY    43  27  52 N6        30.17R
LAKEVILLE      CLOUDY    41  27  56 NE7       30.14R
EDEN PRAIRIE   CLOUDY    43  27  53 N9        30.14R
SOUTH ST PAUL  MOCLDY    42  26  53 N6        30.15S
$$
MNZ001>005-007-008-013>017-022>024-027-028-101100-
   Northwest Minnesota

CITY           SKY/WX    TMP DP  RH WIND       PRES   REMARKS
BEMIDJI        CLOUDY    34  26  71 N3        30.23R
HALLOCK        CLOUDY    36  23  60 NE3       30.28R
ROSEAU           N/A     39 N/A N/A N3        30.27R
WARROAD        PTCLDY    41  30  65 NE9       30.27S
THIEF RVR FALL CLOUDY    37  22  54 NE9       30.26R
CROOKSTON      CLOUDY    34  21  60 E5        30.26R WCI  30
FOSSTON        CLOUDY    36  23  60 N5        30.24R
DETROIT LAKES  CLOUDY    39  25  56 N5        30.21R
MOORHEAD       CLEAR     34  19  55 N6        30.23R WCI  29
PARK RAPIDS    CLOUDY    39  24  55 NE5       30.19R
MAHNOMEN       CLOUDY    33  24  67 NE8       30.23R WCI  27
$$
MNZ006-009>011-018-025>026-101100-
   North Central Minnesota

CITY           SKY/WX    TMP DP  RH WIND       PRES   REMARKS
BAUDETTE       MOCLDY    34  26  72 NE7       30.26R WCI  28
INTL FALLS     CLEAR     36  25  64 NE5       30.24R
WASKISH        MOCLDY    34  25  69 NE3       30.24S
BIG FORK       CLEAR     27  21  80 CALM      30.27R
LONGVILLE      CLOUDY    39  25  56 N6        30.20R
GRAND RAPIDS   CLOUDY    34  24  67 N3        30.22R
CRANE LAKE     CLEAR     27  25  93 CALM      30.26R
ORR            CLOUDY    32  25  74 CALM      30.20R
COOK           CLOUDY    28  25  86 CALM      30.21R
WALKER         CLOUDY    38  26  63 N5        30.21R
$$
MNZ012-019>021-037-101100-
   Northeast Minnesota

CITY           SKY/WX    TMP DP  RH WIND       PRES   REMARKS
DULUTH         CLOUDY    35  25  66 NE6       30.18R WCI  30
ELY            CLEAR     34  25  69 CALM      30.20R
HIBBING        CLOUDY    28  22  78 NW3       30.20R
EVELETH        CLOUDY    36  27  71 NE3       30.21R
DULUTH HARBOR  CLOUDY    39  28  65 NE6       30.21R
TWO HARBORS    CLOUDY    36  25  64 N5        30.18R
SILVER BAY     CLOUDY    36  25  64 N3        30.19R
GRAND MARAIS     N/A     37  25  61 N9        30.18R
G MARAIS ARPRT PTCLDY    28  23  80 NW6       30.16R WCI  22
$$
MNZ029>031-032-039>041-046>048-054>057-064-101100-
   West Central Minnesota

CITY           SKY/WX    TMP DP  RH WIND       PRES   REMARKS
FERGUS FALLS   MOCLDY    39  27  60 E3        30.17R
WHEATON        MOCLDY    36  25  64 N3        30.21R
MORRIS         PTCLDY    37  23  56 NE7       30.18R
ALEXANDRIA     CLOUDY    40  29  64 E8        30.18R
ELBOW LAKE     CLOUDY    41  31  67 NE6       30.19S
WADENA         PTCLDY    36  27  69 NE3       30.20R
GLENWOOD       CLOUDY    39  28  65 NE8       30.17R
APPLETON       PTCLDY    43  27  52 NE6       30.16R
BENSON         MOCLDY    39  28  65 E7        30.17R
ORTONVILLE     PTCLDY    41  28  60 NE7       30.17R
MADISON        PTCLDY    41  28  60 N8        30.18R
WILLMAR        MOCLDY    43  28  56 NE12G20   30.18R
$$
MNZ033>034-036-042>043-049>051-058-059-101100-
   Central Minnesota

CITY           SKY/WX    TMP DP  RH WIND       PRES   REMARKS
ST CLOUD       CLOUDY    41  27  57 NE6       30.18R
SAUK CENTRE    CLOUDY    40  28  64 E5        30.18S
PAYNESVILLE    CLOUDY    41  30  65 NE7       30.17S
AITKIN         PTCLDY    27  25  93 CALM      30.20R
PINE RIVER     CLOUDY    34  28  80 CALM      30.23R
BRAINERD       CLOUDY    35  29  78 NE5       30.20R WCI  31
STAPLES        CLEAR     36  28  75 N3        30.20R
LONG PRAIRIE   CLOUDY    37  30  75 NE3       30.19R
LITTLE FALLS   CLOUDY    37  27  65 CALM      30.19R
CAMP RIPLEY    CLOUDY    38  29  70 N7        30.20R
LITCHFIELD     MOCLDY    43  30  61 NE9       30.16R
BUFFALO        CLOUDY    42  27  55 MISG      30.18R
MAPLE LAKE     CLOUDY    42  29  59 NE8       30.18R
HUTCHINSON     MOCLDY    42  30  62 NE10      30.16R
$$
MNZ037-044-045-052-053-101100-
   East Central Minnesota

CITY           SKY/WX    TMP DP  RH WIND       PRES   REMARKS
PRINCETON      CLOUDY    43  28  56 CALM      30.18R
MORA           PTCLDY    36  28  75 CALM      30.20R
CAMBRIDGE      CLOUDY    43  27  52 CALM      30.18R
RUSH CITY      CLOUDY    37  28  70 N5        30.18S
MOOSE LAKE     CLEAR     28  27  93 CALM      30.18R
CLOQUET        CLOUDY    30  27  86 N7        30.17S WCI  23
$$
MNZ071>073-080-081-089-090-097-098-101100-
   Southwest Minnesota

CITY           SKY/WX    TMP DP  RH WIND       PRES   REMARKS
MONTEVIDEO     PTCLDY    39  25  56 E8        30.15R
GRANITE FALLS  PTCLDY    42  30  62 N8        30.16R
CANBY          PTCLDY    36  28  71 N7        30.16R
MARSHALL       MOCLDY    43  27  53 NE9       30.13R
REDWOOD FALLS  MOCLDY    44  28  53 E8        30.11S
OLIVIA         MOCLDY    41  28  60 NE10      30.13R
PIPESTONE        N/A     46  30  53 NW9       30.10S
WINDOM         PTCLDY    43  34  70 CALM      30.09S
WORTHINGTON    CLOUDY    45  30  55 NW6       30.10S
JACKSON        PTCLDY    41  30  65 NE7       30.10S
TRACY          CLOUDY    44  26  50 E7        30.09F
SLAYTON        MOCLDY    41  27  57 W9        30.11S
$$
MNZ065>067-074>077-082>085-091>093-101100-
   South Central Minnesota

CITY           SKY/WX    TMP DP  RH WIND       PRES   REMARKS
MANKATO        CLOUDY    44  27  51 VRB6      30.13R
NEW ULM        CLOUDY    45  27  49 E6        30.12R
ST JAMES       CLOUDY    45  28  53 NE3       30.11R
FAIRMONT       MOCLDY    43  25  49 N9        30.11R
GLENCOE        CLOUDY    41  28  61 NE5       30.14R
FARIBAULT      CLOUDY    41  28  60 N6        30.13R
OWATONNA       CLOUDY    43  27  52 N9        30.11S
WASECA         CLOUDY    43  27  52 N8        30.12R
ALBERT LEA     PTCLDY    45  27  49 E3        30.08F
$$
MNZ078>079-086>088-094>096-101100-
   Southeast Minnesota

CITY           SKY/WX    TMP DP  RH WIND       PRES   REMARKS
ROCHESTER      CLOUDY    40  26  57 NE7       30.09R
RED WING       PTCLDY    39  25  56 N3        30.13R
STANTON        CLOUDY    40  29  63 NE7       30.12R
DODGE CENTER   MOCLDY    39  25  56 N8        30.10R
WINONA         PTCLDY    41  32  70 CALM      30.12R
AUSTIN         MOCLDY    43  28  56 NE5       30.08S
PRESTON        MOCLDY    41  29  63 NE3       30.09R
$$
ABBREVIATIONS USED IN REMARKS
   TC - TEMPERATURES IN CELSIUS
  WCI - WIND CHILL INDEX
   HX - HEAT INDEX
  VSB - VISIBILITY
$$



USA.gov is the U.S. government's official web portal to all federal, state and local government web resources and services.